Home   Weather   Marseille   Past weeks

Flag for France Past Weather in Marseille, Provence-Alpes-Côte d'Azur, France — Yesterday and Last 2 Weeks

Now
75 °F

Sunny.


Feels Like: 78 °F
Forecast: 75 / 87 °F
Wind: 12 mph from Northwest

Location: Marseille / Marignane

Current Time: Jul 27, 2017 at 9:02:34 am

Latest Report: Jul 27, 2017 at 8:30 am


Visibility: 10 mi

Pressure: 29.89 "Hg

Humidity: 47%

Dew Point: 54 °F

Location of MarseilleLocation

Past Weather in Marseille — Graph

°F

Marseille Temperature Yesterday

Maximum temperature yesterday: 84 °F (at 3:30 pm)
Minimum temperature yesterday: 68 °F (at 4:00 am)
Average temperature yesterday: 76 °F

High & Low Weather Summary for the Past Weeks

 TemperatureHumidityPressure
High93 °F (Jul 12, 2:30 pm)88% (Jul 22, 6:30 am)30.15 "Hg (Jul 22, 6:30 am)
Low66 °F (Jul 17, 6:00 am)15% (Jul 17, 1:00 pm)29.77 "Hg (Jul 26, 5:00 pm)
Average79 °F42%29.95 "Hg
* Reported Jul 12 8:00 am — Jul 27 8:00 am, Marseille. Weather by CustomWeather, © 2017

Note: Actual official high and low records may vary slightly from our data, if they occured in-between our weather recording intervals... More about our weather records

Advertising

Marseille Weather History for the Previous 24 Hours

Scroll right to see more
 ConditionsComfort  
Time TempWeatherWind HumidityBarometerVisibility
8:00 am
Thu, Jul 27
73 °FSunny.14 mph50%29.86 "Hg10 mi
7:30 am72 °FPassing clouds.15 mph53%29.86 "HgN/A
7:00 am72 °FSunny.15 mph53%29.86 "Hg10 mi
6:30 am72 °FSunny.14 mph53%29.83 "Hg10 mi
6:00 am72 °FClear.16 mph50%29.86 "Hg10 mi
5:30 am73 °FClear.20 mph47%29.86 "Hg10 mi
5:00 am73 °FClear.20 mph44%29.83 "Hg10 mi
4:30 am73 °FClear.21 mph44%29.83 "Hg10 mi
4:00 am73 °FClear.20 mph41%29.83 "Hg10 mi
3:30 am73 °FClear.14 mph41%29.83 "Hg10 mi
3:00 am75 °FClear.15 mph39%29.86 "Hg10 mi
2:30 am75 °FClear.15 mph36%29.86 "Hg10 mi
2:00 am75 °FClear.16 mph36%29.86 "Hg10 mi
1:30 am75 °FPassing clouds.10 mph39%29.86 "HgN/A
1:00 am75 °FClear.17 mph36%29.83 "Hg10 mi
12:30 am77 °FClear.20 mph36%29.83 "Hg10 mi
12:00 am77 °FClear.24 mph34%29.83 "Hg10 mi
11:30 pm
Wed, Jul 26
77 °FClear.25 mph36%29.83 "Hg10 mi
11:00 pm77 °FPassing clouds.28 mph34%29.83 "HgN/A
10:30 pm77 °FClear.26 mph34%29.83 "Hg10 mi
10:00 pm77 °FClear.22 mph32%29.83 "Hg10 mi
9:30 pm79 °FClear.25 mph32%29.80 "Hg10 mi
9:00 pm79 °FPassing clouds.28 mph34%29.80 "HgN/A
8:30 pm81 °FPassing clouds.22 mph28%29.80 "HgN/A
8:00 pm82 °FSunny.29 mph26%29.77 "Hg10 mi
7:30 pm81 °FPassing clouds.25 mph28%29.77 "HgN/A
7:00 pm82 °FSunny.25 mph26%29.77 "Hg10 mi
6:30 pm82 °FSunny.25 mph23%29.77 "Hg10 mi
6:00 pm84 °FPassing clouds.35 mph23%29.77 "HgN/A
5:30 pm84 °FSunny.28 mph25%29.77 "Hg10 mi
5:00 pm84 °FSunny.31 mph23%29.77 "Hg10 mi
4:30 pm84 °FPassing clouds.33 mph23%29.80 "HgN/A
4:00 pm84 °FSunny.32 mph22%29.80 "Hg10 mi
3:30 pm84 °FSunny.31 mph23%29.80 "Hg10 mi
3:00 pm82 °FSunny.28 mph26%29.80 "Hg10 mi
2:30 pm82 °FSunny.32 mph26%29.80 "Hg10 mi
2:00 pm82 °FSunny.30 mph26%29.83 "Hg10 mi
1:30 pm82 °FSunny.36 mph28%29.83 "Hg10 mi
1:00 pm81 °FPassing clouds.36 mph28%29.83 "HgN/A
12:30 pm81 °FSunny.35 mph28%29.80 "Hg10 mi
12:00 pm81 °FPassing clouds.36 mph28%29.83 "HgN/A
11:30 am79 °FSunny.32 mph32%29.83 "Hg10 mi
11:00 am77 °FSunny.32 mph36%29.83 "Hg10 mi
10:30 am77 °FSunny.29 mph39%29.83 "Hg10 mi
10:00 am75 °FSunny.30 mph41%29.83 "Hg10 mi
9:30 am73 °FSunny.30 mph44%29.83 "Hg10 mi
9:00 am72 °FSunny.29 mph50%29.83 "Hg10 mi
Weather by CustomWeather, © 2017

See weather overviewHow to use our weather pages